Regional Weather Roundup
Issued by NWS

Home | Current Version | Previous Version | Graphics & Text | Print | Product List | Glossary On
Versions: 1 2 3 4 5 6 7 8 9 10 11 12 13 14 15 16 17 18 19 20 21 22 23 24 25 26 27 28 29 30 31 32 33 34 35 36 37 38 39 40 41 42 43 44 45 46 47 48 49 50
000
ASUS45 KBOU 270207
RWRCO

WEATHER ROUNDUP FOR COLORADO
NATIONAL WEATHER SERVICE DENVER/BOULDER CO
700 PM MST WED NOV 26 2014

NOTE: "FAIR" INDICATES FEW OR NO CLOUDS BELOW 12000 FEET WITH NO
SIGNIFICANT WEATHER AND/OR OBSTRUCTIONS TO VISIBILITY.

COZ001>005-013-030-031-270300-
...NORTHWEST COLORADO...

CITY           SKY/WX    TMP DP  RH WIND       PRES   REMARKS
CRAIG          MOCLDY    35  28  75 W7        30.36R WCI  29
HAYDEN         MOCLDY    36  27  69 NE5       30.36R
MEEKER         CLEAR     29  23  78 NE3       30.39R
MOUNT WERNER   NOT AVBL
STEAMBOAT SPGS MOCLDY    35  31  85 E6        30.36R WCI  30
WALDEN         PTCLDY    34  25  69 SW15G21   30.32R WCI  24
$$

COZ006>008-011-270300-
...WEST CENTRAL VALLEYS...

CITY           SKY/WX    TMP DP  RH WIND       PRES   REMARKS
GRAND JUNCTION CLEAR     32  23  69 E3        30.39R
MONTROSE       CLEAR     37  25  61 S6        30.44R
EAGLE          CLEAR     34  28  80 NE8       30.43R WCI  27
RIFLE          CLEAR     31  25  78 E7        30.43R WCI  24
DELTA          CLEAR     42  26  53 NE8       30.42R
NUCLA          CLEAR     37  27  65 E9        30.45R
$$

COZ017>023-064>068-270300-
...SOUTHWEST COLORADO...

CITY           SKY/WX    TMP DP  RH WIND       PRES   REMARKS
DURANGO        CLEAR     33  21  61 E7        30.38R WCI  27
CORTEZ         CLEAR     34  20  56 NE5       30.42R WCI  30
PAGOSA SPRINGS CLEAR     33  20  59 CALM      30.44R
TELLURIDE      PTCLDY    31  26  81 E6        30.50S WCI  26
WOLF CREEK PAS CLEAR     28  10  47 MISG      30.52S
$$

COZ009-010-012-014-032>034-037-058>063-270300-
...CENTRAL COLORADO...

CITY           SKY/WX    TMP DP  RH WIND       PRES   REMARKS
ASPEN          CLEAR     27  21  78 SW8       30.44R WCI  19
BUENA VISTA    NOT AVBL
COPPER MTN     MOCLDY    27  21  80 W33G41    30.42S WCI   9
BERTHOUD PASS  NOT AVBL
COTTONWOOD PAS PTCLDY    37  16  41 NW9G24    30.36R
GUNNISON       CLEAR     34  21  60 W5        30.45R WCI  30
KREMMLING      PTCLDY    36  25  64 W3        30.38R
LEADVILLE      MOCLDY    28  18  66 W6        30.42R WCI  22
SALIDA         PTCLDY    45  22  39 SW10G20   30.40R
SUNLIGHT       CLEAR    N/A N/A N/A CALM      30.50R
WILKERSON PASS PTCLDY    28  16  59 SW3       30.42R
$$

COZ069>075-270300-
...SAN LUIS VALLEY/SANGRE DE CRISTO MOUNTAINS...

CITY           SKY/WX    TMP DP  RH WIND       PRES   REMARKS
ALAMOSA        PTCLDY    31  18  58 CALM      30.39R
LA VETA PASS   CLEAR     32  19  59 S14G23    30.37F WCI  22
SAGUACHE       CLEAR     36  25  64 NW9       30.40R
$$

COZ035-036-038>040-270300-
...NORTHERN COLORADO FRONT RANGE...

CITY           SKY/WX    TMP DP  RH WIND       PRES   REMARKS
DENVER INTL AP PTCLDY    26  22  84 E5        30.22S WCI  20
DMNS CITY PARK   N/A     30  24  78 CALM      30.23F
AURORA         PTCLDY    30  25  81 SW8       30.24R WCI  22
FRONT RANGE AP NOT AVBL
ERIE MUNI ARPT CLEAR     27  24  87 CALM      30.23F
BOULDER MUN AP CLEAR     32  25  74 NE3       30.23S
CENTENNIAL     PTCLDY    35  25  66 W5        30.23R WCI  31
BROOMFIELD     PTCLDY    32  27  80 CALM      30.22F
FORT COLLINS   CLEAR     28  21  74 E8        30.27R WCI  20
LONGMONT       CLEAR     28  23  82 CALM      30.25F
$$

COZ041-046-047-076>085-087-088-270300-
...PIKES PEAK/PALMER DIVIDE AND SOUTHERN FOOTHILLS...

CITY           SKY/WX    TMP DP  RH WIND       PRES   REMARKS
COLO. SPRINGS  PTCLDY    29  22  75 N3        30.28R
A. F. ACADEMY  PTCLDY    27  23  85 N7        30.27R WCI  19
ELLICOTT       NOT AVBL
FALCON         NOT AVBL
FORT CARSON    CLEAR     28  22  79 NW2       30.27R
LIMON          CLEAR     25  19  78 SE8       30.27R WCI  16
MONUMENT HILL  CLEAR     28  23  80 SW10      30.25R WCI  19
TRINIDAD       CLEAR     35  28  75 NE6       30.26R WCI  30
$$

COZ042>045-048>051-090-091-270300-
...NORTHEAST COLORADO...

CITY           SKY/WX    TMP DP  RH WIND       PRES   REMARKS
GREELEY ARPT   PTCLDY    27  18  69 E5        30.27S WCI  21
AKRON          MOCLDY    25  22  88 SE12      30.26R WCI  14
BURLINGTON     CLEAR     23  19  85 SE8       30.31R WCI  14
WRAY           CLOUDY    29  26  88 CALM      30.32S
STERLING       CLOUDY    30  28  93 CALM      30.30R
HOLYOKE        CLOUDY    32  30  93 CALM      30.33R
FORT MORGAN    PTCLDY    25  22  89 E7        30.28R WCI  17
$$

COZ086-089-092>099-270300-
...SOUTHEAST COLORADO...

CITY           SKY/WX    TMP DP  RH WIND       PRES   REMARKS
PUEBLO         CLEAR     32  24  72 E6        30.29R WCI  26
LA JUNTA       CLEAR     32  22  66 E8        30.30R WCI  25
LAMAR          CLEAR     29  19  66 E9        30.32R WCI  20
SPRINGFIELD      N/A     29  20  69 SE10      30.30S WCI  20
$$



USA.gov is the U.S. government's official web portal to all federal, state and local government web resources and services.